Phoenix-Mesa Gateway Airport, AZ

6:08 PM MST on April 25, 2018 (GMT -0700)
Phoenix-Mesa Gateway Airport

Weather History for KIWA - January, 2013

Change the Weather History Date:

Monday, January 7, 2013

  Actual Average Record
Temperature  
Mean Temperature 46 °F -  
Max Temperature 57 °F 63 °F 77 °F (2003)
Min Temperature 35 °F 39 °F 28 °F (2000)
Degree Days  
Heating Degree Days 19    
Moisture  
Dew Point 28 °F    
Average Humidity 56    
Maximum Humidity 70    
Minimum Humidity 29    
Precipitation  
Precipitation 0.00 in - - ()
Sea Level Pressure  
Sea Level Pressure 29.92 in    
Wind  
Wind Speed 5 mph (East)    
Max Wind Speed 8 mph    
Max Gust Speed -    
Visibility 12 miles    
Events      
Averages and records for this station are not official NWS values.
T = Trace of Precipitation, MM = Missing Value Source: NWS Daily Summary

Daily Weather History Graph

Daily Weather History Graph

Search for Another Location

Airport or City:

Astronomy

Jan. 07, 2013 Rise Set
Actual Time 7:31 AM MST 5:35 PM MST
Civil Twilight 7:03 AM MST 6:02 PM MST
Nautical Twilight 6:33 AM MST 6:33 PM MST
Astronomical Twilight 6:03 AM MST 7:03 PM MST
Moon 3:02 AM MST (1/7) 1:46 PM MST (1/7)
Length of Visible Light 10h 58m
Length of Day
10h 04m
Waning Crescent, 22% of the Moon is Illuminated
Jan 7
Waning Crescent
Jan 11
New
Jan 18
First Quarter
Jan 26
Full
Feb 3
Last Quarter

Hourly Weather History & Observations

Time (MST) Temp. Windchill Dew Point Humidity Pressure Visibility Wind Dir Wind Speed Gust Speed Precip Events Conditions
12:15 AM 41.0 °F 36.4 °F 26.6 °F 57% 29.95 in 10.0 mi ESE 6.9 mph - N/A   Clear
12:35 AM 41.0 °F 37.1 °F 28.4 °F 61% 29.95 in 10.0 mi ESE 5.8 mph - N/A   Clear
12:55 AM 41.0 °F 37.1 °F 28.4 °F 61% 29.94 in 10.0 mi East 5.8 mph - N/A   Clear
1:15 AM 42.8 °F 38.6 °F 30.2 °F 61% 29.94 in 10.0 mi ESE 6.9 mph - N/A   Clear
1:35 AM 42.8 °F 41.1 °F 28.4 °F 57% 29.95 in 10.0 mi ENE 3.5 mph - N/A   Clear
1:55 AM 42.8 °F - 30.2 °F 61% 29.95 in 10.0 mi Calm Calm - N/A   Clear
2:15 AM 42.8 °F 38.0 °F 30.2 °F 61% 29.94 in 10.0 mi East 8.1 mph - N/A   Clear
2:35 AM 42.8 °F 38.6 °F 30.2 °F 61% 29.95 in 10.0 mi ESE 6.9 mph - N/A   Clear
2:55 AM 41.0 °F 36.4 °F 28.4 °F 61% 29.94 in 10.0 mi ESE 6.9 mph - N/A   Clear
3:15 AM 39.2 °F 35.0 °F 28.4 °F 65% 29.93 in 10.0 mi SE 5.8 mph - N/A   Clear
3:35 AM 37.4 °F 32.8 °F 28.4 °F 70% 29.94 in 10.0 mi SE 5.8 mph - N/A   Clear
3:55 AM 37.4 °F 32.8 °F 28.4 °F 70% 29.94 in 10.0 mi SE 5.8 mph - N/A   Clear
4:15 AM 37.4 °F 31.4 °F 28.4 °F 70% 29.93 in 10.0 mi SE 8.1 mph - N/A   Clear
4:35 AM 37.4 °F 31.4 °F 28.4 °F 70% 29.92 in 10.0 mi ESE 8.1 mph - N/A   Clear
4:55 AM 37.4 °F 33.8 °F 28.4 °F 70% 29.92 in 10.0 mi ESE 4.6 mph - N/A   Clear
5:15 AM 37.4 °F 32.1 °F 28.4 °F 70% 29.92 in 10.0 mi ESE 6.9 mph - N/A   Clear
5:47 AM 35.6 °F - 26.6 °F 70% 29.93 in 20.0 mi Calm Calm - N/A   Mostly Cloudy
6:47 AM 35.6 °F 30.7 °F 26.6 °F 70% 29.93 in 20.0 mi East 5.8 mph - N/A   Mostly Cloudy
7:47 AM 35.6 °F 30.7 °F 26.6 °F 70% 29.95 in 35.0 mi ESE 5.8 mph - N/A   Scattered Clouds
8:47 AM 41.0 °F 38.0 °F 28.4 °F 61% 29.95 in 35.0 mi SE 4.6 mph - N/A   Scattered Clouds
9:47 AM 44.6 °F 43.1 °F 28.4 °F 53% 29.97 in 35.0 mi SSE 3.5 mph - N/A   Scattered Clouds
10:47 AM 51.8 °F - 28.4 °F 41% 29.96 in 35.0 mi Calm Calm - N/A   Scattered Clouds
11:47 AM 53.6 °F - 28.4 °F 38% 29.93 in 35.0 mi Calm Calm - N/A   Scattered Clouds
12:47 PM 55.4 °F - 26.6 °F 33% 29.90 in 35.0 mi West 5.8 mph - N/A   Scattered Clouds
1:47 PM 57.2 °F - 26.6 °F 31% 29.88 in 35.0 mi West 6.9 mph - N/A   Mostly Cloudy
2:47 PM 57.2 °F - 24.8 °F 29% 29.87 in 35.0 mi West 6.9 mph - N/A   Mostly Cloudy
3:47 PM 57.2 °F - 24.8 °F 29% 29.87 in 35.0 mi West 6.9 mph - N/A   Mostly Cloudy
4:47 PM 57.2 °F - 24.8 °F 29% 29.89 in 35.0 mi West 8.1 mph - N/A   Scattered Clouds
5:47 PM 53.6 °F - 26.6 °F 35% 29.90 in 20.0 mi West 5.8 mph - N/A   Partly Cloudy
6:47 PM 53.6 °F - 28.4 °F 38% 29.91 in 20.0 mi WNW 4.6 mph - N/A   Clear
7:47 PM 48.2 °F - 26.6 °F 43% 29.92 in 20.0 mi NNW 3.5 mph - N/A   Clear
7:55 PM 46.4 °F 44.3 °F 28.4 °F 50% 29.92 in 10.0 mi North 4.6 mph - N/A   Clear
8:15 PM 46.4 °F 45.2 °F 28.4 °F 50% 29.93 in 10.0 mi NNE 3.5 mph - N/A   Clear
8:35 PM 44.6 °F 42.2 °F 30.2 °F 57% 29.93 in 10.0 mi NNE 4.6 mph - N/A   Clear
8:47 PM 44.6 °F 42.2 °F 28.4 °F 53% 29.93 in 20.0 mi NNE 4.6 mph - N/A   Clear
8:55 PM 44.6 °F 40.7 °F 30.2 °F 57% 29.93 in 10.0 mi North 6.9 mph - N/A   Clear
9:15 PM 50.0 °F - 28.4 °F 43% 29.93 in 10.0 mi NNW 5.8 mph - N/A   Clear
9:35 PM 44.6 °F 42.2 °F 30.2 °F 57% 29.93 in 10.0 mi NE 4.6 mph - N/A   Clear
9:55 PM 42.8 °F - 30.2 °F 61% 29.92 in 10.0 mi Calm Calm - N/A   Clear
10:15 PM 42.8 °F - 30.2 °F 61% 29.91 in 10.0 mi Calm Calm - N/A   Clear
10:35 PM 42.8 °F - 30.2 °F 61% 29.91 in 10.0 mi Calm Calm - N/A   Clear
10:55 PM 41.0 °F - 30.2 °F 65% 29.91 in 10.0 mi Calm Calm - N/A   Clear
11:15 PM 42.8 °F - 30.2 °F 61% 29.90 in 10.0 mi Calm Calm - N/A   Clear
11:35 PM 41.0 °F - 30.2 °F 65% 29.90 in 10.0 mi Calm Calm - N/A   Clear
11:55 PM 41.0 °F 39.0 °F 28.4 °F 61% 29.90 in 10.0 mi SSE 3.5 mph - N/A   Clear